Year,Month,Day,Hour,Minute,Value (Times are PST for windgust in km/hr)
2013,09,30,00,00,17.70
2013,09,30,00,01,22.50
2013,09,30,00,02,27.40
2013,09,30,00,03,20.90
2013,09,30,00,04,22.50
2013,09,30,00,05,20.90
2013,09,30,00,06,20.90
2013,09,30,00,07,22.50
2013,09,30,00,08,24.20
2013,09,30,00,09,22.50
2013,09,30,00,10,20.90
2013,09,30,00,11,19.30
2013,09,30,00,12,17.70
2013,09,30,00,13,22.50
2013,09,30,00,14,24.20
2013,09,30,00,15,24.20
2013,09,30,00,16,24.20
2013,09,30,00,17,22.50
2013,09,30,00,18,20.90
2013,09,30,00,19,20.90
2013,09,30,00,20,22.50
2013,09,30,00,21,33.80
2013,09,30,00,22,27.40
2013,09,30,00,23,24.20
2013,09,30,00,24,20.90
2013,09,30,00,25,27.40
2013,09,30,00,26,27.40
2013,09,30,00,27,30.60
2013,09,30,00,28,29.00
2013,09,30,00,29,32.20
2013,09,30,00,30,32.20
2013,09,30,00,31,29.00
2013,09,30,00,32,29.00
2013,09,30,00,33,22.50
2013,09,30,00,34,32.20
2013,09,30,00,35,29.00
2013,09,30,00,36,30.60
2013,09,30,00,37,27.40
2013,09,30,00,38,20.90
2013,09,30,00,39,27.40
2013,09,30,00,40,22.50
2013,09,30,00,41,20.90
2013,09,30,00,42,29.00
2013,09,30,00,43,20.90
2013,09,30,00,44,32.20
2013,09,30,00,45,35.40
2013,09,30,00,46,22.50
2013,09,30,00,47,20.90
2013,09,30,00,48,25.70
2013,09,30,00,49,25.70
2013,09,30,00,50,33.80
2013,09,30,00,51,33.80
2013,09,30,00,52,25.70
2013,09,30,00,53,25.70
2013,09,30,00,54,32.20
2013,09,30,00,55,29.00
2013,09,30,00,56,32.20
2013,09,30,00,57,27.40
2013,09,30,00,58,20.90
2013,09,30,00,59,20.90
2013,09,30,01,00,35.40
2013,09,30,01,01,24.20
2013,09,30,01,02,41.80
2013,09,30,01,03,29.00
2013,09,30,01,04,33.80
2013,09,30,01,05,37.00
2013,09,30,01,06,41.80
2013,09,30,01,07,43.50
2013,09,30,01,08,35.40
2013,09,30,01,09,30.60
2013,09,30,01,10,33.80
2013,09,30,01,11,32.20
2013,09,30,01,12,27.40
2013,09,30,01,13,32.20
2013,09,30,01,14,29.00
2013,09,30,01,15,30.60
2013,09,30,01,16,41.80
2013,09,30,01,17,38.60
2013,09,30,01,18,25.70
2013,09,30,01,19,33.80
2013,09,30,01,20,24.20
2013,09,30,01,21,22.50
2013,09,30,01,22,27.40
2013,09,30,01,23,22.50
2013,09,30,01,24,20.90
2013,09,30,01,25,24.20
2013,09,30,01,26,9.60
2013,09,30,01,27,24.20
2013,09,30,01,28,19.30
2013,09,30,01,29,25.70
2013,09,30,01,30,29.00
2013,09,30,01,31,22.50
2013,09,30,01,32,24.20
2013,09,30,01,33,24.20
2013,09,30,01,34,27.40
2013,09,30,01,35,22.50
2013,09,30,01,36,27.40
2013,09,30,01,37,22.50
2013,09,30,01,38,27.40
2013,09,30,01,39,22.50
2013,09,30,01,40,25.70
2013,09,30,01,41,24.20
2013,09,30,01,42,27.40
2013,09,30,01,43,24.20
2013,09,30,01,44,20.90
2013,09,30,01,45,17.70
2013,09,30,01,46,25.70
2013,09,30,01,47,25.70
2013,09,30,01,48,27.40
2013,09,30,01,49,20.90
2013,09,30,01,50,16.10
2013,09,30,01,51,19.30
2013,09,30,01,52,19.30
2013,09,30,01,53,19.30
2013,09,30,01,54,17.70
2013,09,30,01,55,14.50
2013,09,30,01,56,30.60
2013,09,30,01,57,29.00
2013,09,30,01,58,22.50
2013,09,30,01,59,14.50
2013,09,30,02,00,19.30
2013,09,30,02,01,11.30
2013,09,30,02,02,20.90
2013,09,30,02,03,9.60
2013,09,30,02,04,11.30
2013,09,30,02,05,17.70
2013,09,30,02,06,9.60
2013,09,30,02,07,22.50
2013,09,30,02,08,24.20
2013,09,30,02,09,29.00
2013,09,30,02,10,20.90
2013,09,30,02,11,20.90
2013,09,30,02,12,14.50
2013,09,30,02,13,14.50
2013,09,30,02,14,19.30
2013,09,30,02,15,22.50
2013,09,30,02,16,24.20
2013,09,30,02,17,20.90
2013,09,30,02,18,20.90
2013,09,30,02,19,16.10
2013,09,30,02,20,11.30
2013,09,30,02,21,14.50
2013,09,30,02,22,8.10
2013,09,30,02,23,9.60
2013,09,30,02,24,14.50
2013,09,30,02,25,17.70
2013,09,30,02,26,25.70
2013,09,30,02,27,25.70
2013,09,30,02,28,25.70
2013,09,30,02,29,25.70
2013,09,30,02,30,30.60
2013,09,30,02,31,25.70
2013,09,30,02,32,25.70
2013,09,30,02,33,29.00
2013,09,30,02,34,29.00
2013,09,30,02,35,19.30
2013,09,30,02,36,22.50
2013,09,30,02,37,14.50
2013,09,30,02,38,20.90
2013,09,30,02,39,27.40
2013,09,30,02,40,16.10
2013,09,30,02,41,22.50
2013,09,30,02,42,33.80
2013,09,30,02,43,35.40
2013,09,30,02,44,22.50
2013,09,30,02,45,22.50
2013,09,30,02,46,19.30
2013,09,30,02,47,22.50
2013,09,30,02,48,22.50
2013,09,30,02,49,20.90
2013,09,30,02,50,22.50
2013,09,30,02,51,25.70
2013,09,30,02,52,20.90
2013,09,30,02,53,22.50
2013,09,30,02,54,17.70
2013,09,30,02,55,24.20
2013,09,30,02,56,24.20
2013,09,30,02,57,22.50
2013,09,30,02,58,25.70
2013,09,30,02,59,27.40
2013,09,30,03,00,17.70
2013,09,30,03,01,19.30
2013,09,30,03,02,29.00
2013,09,30,03,03,37.00
2013,09,30,03,04,45.10
2013,09,30,03,05,32.20
2013,09,30,03,06,29.00
2013,09,30,03,07,38.60
2013,09,30,03,08,35.40
2013,09,30,03,09,53.10
2013,09,30,03,10,25.70
2013,09,30,03,11,32.20
2013,09,30,03,12,30.60
2013,09,30,03,13,32.20
2013,09,30,03,14,30.60
2013,09,30,03,15,30.60
2013,09,30,03,16,40.20
2013,09,30,03,17,35.40
2013,09,30,03,18,29.00
2013,09,30,03,19,27.40
2013,09,30,03,20,25.70
2013,09,30,03,21,27.40
2013,09,30,03,22,29.00
2013,09,30,03,23,22.50
2013,09,30,03,24,22.50
2013,09,30,03,25,19.30
2013,09,30,03,26,24.20
2013,09,30,03,27,20.90
2013,09,30,03,28,19.30
2013,09,30,03,29,27.40
2013,09,30,03,30,27.40
2013,09,30,03,31,25.70
2013,09,30,03,32,27.40
2013,09,30,03,33,35.40
2013,09,30,03,34,24.20
2013,09,30,03,35,22.50
2013,09,30,03,36,22.50
2013,09,30,03,37,24.20
2013,09,30,03,38,22.50
2013,09,30,03,39,19.30
2013,09,30,03,40,16.10
2013,09,30,03,41,20.90
2013,09,30,03,42,16.10
2013,09,30,03,43,22.50
2013,09,30,03,44,20.90
2013,09,30,03,45,24.20
2013,09,30,03,46,24.20
2013,09,30,03,47,24.20
2013,09,30,03,48,24.20
2013,09,30,03,49,20.90
2013,09,30,03,50,17.70
2013,09,30,03,51,24.20
2013,09,30,03,52,22.50
2013,09,30,03,53,17.70
2013,09,30,03,54,11.30
2013,09,30,03,55,16.10
2013,09,30,03,56,16.10
2013,09,30,03,57,16.10
2013,09,30,03,58,19.30
2013,09,30,03,59,20.90
2013,09,30,04,00,20.90
2013,09,30,04,01,19.30
2013,09,30,04,02,16.10
2013,09,30,04,03,19.30
2013,09,30,04,04,19.30
2013,09,30,04,05,11.30
2013,09,30,04,06,25.70
2013,09,30,04,07,22.50
2013,09,30,04,08,19.30
2013,09,30,04,09,16.10
2013,09,30,04,10,20.90
2013,09,30,04,11,14.50
2013,09,30,04,12,17.70
2013,09,30,04,13,24.20
2013,09,30,04,14,24.20
2013,09,30,04,15,22.50
2013,09,30,04,16,17.70
2013,09,30,04,17,20.90
2013,09,30,04,18,24.20
2013,09,30,04,19,24.20
2013,09,30,04,20,16.10
2013,09,30,04,21,14.50
2013,09,30,04,22,22.50
2013,09,30,04,23,14.50
2013,09,30,04,24,19.30
2013,09,30,04,25,19.30
2013,09,30,04,26,20.90
2013,09,30,04,27,20.90
2013,09,30,04,28,24.20
2013,09,30,04,29,29.00
2013,09,30,04,30,24.20
2013,09,30,04,31,27.40
2013,09,30,04,32,20.90
2013,09,30,04,33,19.30
2013,09,30,04,34,22.50
2013,09,30,04,35,22.50
2013,09,30,04,36,17.70
2013,09,30,04,37,19.30
2013,09,30,04,38,37.00
2013,09,30,04,39,24.20
2013,09,30,04,40,22.50
2013,09,30,04,41,29.00
2013,09,30,04,42,38.60
2013,09,30,04,43,32.20
2013,09,30,04,44,30.60
2013,09,30,04,45,27.40
2013,09,30,04,46,25.70
2013,09,30,04,47,25.70
2013,09,30,04,48,16.10
2013,09,30,04,49,33.80
2013,09,30,04,50,22.50
2013,09,30,04,51,16.10
2013,09,30,04,52,37.00
2013,09,30,04,53,53.10
2013,09,30,04,54,32.20
2013,09,30,04,55,33.80
2013,09,30,04,56,37.00
2013,09,30,04,57,24.20
2013,09,30,04,58,33.80
2013,09,30,04,59,27.40
2013,09,30,05,00,32.20
2013,09,30,05,01,29.00
2013,09,30,05,02,29.00
2013,09,30,05,03,20.90
2013,09,30,05,04,24.20
2013,09,30,05,05,20.90
2013,09,30,05,06,29.00
2013,09,30,05,07,24.20
2013,09,30,05,08,24.20
2013,09,30,05,09,24.20
2013,09,30,05,10,24.20
2013,09,30,05,11,25.70
2013,09,30,05,12,25.70
2013,09,30,05,13,19.30
2013,09,30,05,14,22.50
2013,09,30,05,15,25.70
2013,09,30,05,16,20.90
2013,09,30,05,17,27.40
2013,09,30,05,18,24.20
2013,09,30,05,19,19.30
2013,09,30,05,20,22.50
2013,09,30,05,21,29.00
2013,09,30,05,22,24.20
2013,09,30,05,23,22.50
2013,09,30,05,24,17.70
2013,09,30,05,25,11.30
2013,09,30,05,26,22.50
2013,09,30,05,27,20.90
2013,09,30,05,28,17.70
2013,09,30,05,29,27.40
2013,09,30,05,30,22.50
2013,09,30,05,31,14.50
2013,09,30,05,32,11.30
2013,09,30,05,33,14.50
2013,09,30,05,34,14.50
2013,09,30,05,35,17.70
2013,09,30,05,36,16.10
2013,09,30,05,37,20.90
2013,09,30,05,38,22.50
2013,09,30,05,39,14.50
2013,09,30,05,40,16.10
2013,09,30,05,41,25.70
2013,09,30,05,42,24.20
2013,09,30,05,43,24.20
2013,09,30,05,44,24.20
2013,09,30,05,45,14.50
2013,09,30,05,46,19.30
2013,09,30,05,47,17.70
2013,09,30,05,48,14.50
2013,09,30,05,49,16.10
2013,09,30,05,50,19.30
2013,09,30,05,51,17.70
2013,09,30,05,52,16.10
2013,09,30,05,53,11.30
2013,09,30,05,54,8.10
2013,09,30,05,55,11.30
2013,09,30,05,56,11.30
2013,09,30,05,57,9.60
2013,09,30,05,58,9.60
2013,09,30,05,59,11.30
2013,09,30,06,00,8.10
2013,09,30,06,01,11.30
2013,09,30,06,02,11.30
2013,09,30,06,03,11.30
2013,09,30,06,04,9.60
2013,09,30,06,05,9.60
2013,09,30,06,06,9.60
2013,09,30,06,07,6.40
2013,09,30,06,08,4.80
2013,09,30,06,09,6.40
2013,09,30,06,10,8.10
2013,09,30,06,11,4.80
2013,09,30,06,12,4.80
2013,09,30,06,13,6.40
2013,09,30,06,14,6.40
2013,09,30,06,15,4.80
2013,09,30,06,16,4.80
2013,09,30,06,17,6.40
2013,09,30,06,18,6.40
2013,09,30,06,19,9.60
2013,09,30,06,20,11.30
2013,09,30,06,21,3.20
2013,09,30,06,22,1.60
2013,09,30,06,23,4.80
2013,09,30,06,24,6.40
2013,09,30,06,25,4.80
2013,09,30,06,26,3.20
2013,09,30,06,27,3.20
2013,09,30,06,30,1.60
2013,09,30,06,31,4.80
2013,09,30,06,32,4.80
2013,09,30,06,33,3.20
2013,09,30,06,34,1.60
2013,09,30,06,35,3.20
2013,09,30,06,36,1.60
2013,09,30,06,37,1.60
2013,09,30,06,40,6.40
2013,09,30,06,41,4.80
2013,09,30,06,45,3.20
2013,09,30,06,46,1.60
2013,09,30,06,49,1.60
2013,09,30,06,51,3.20
2013,09,30,06,52,1.60
2013,09,30,06,53,1.60
2013,09,30,06,54,1.60
2013,09,30,06,57,3.20
2013,09,30,07,04,3.20
2013,09,30,07,05,3.20
2013,09,30,07,06,3.20
2013,09,30,07,07,4.80
2013,09,30,07,08,4.80
2013,09,30,07,09,4.80
2013,09,30,07,10,1.60
2013,09,30,07,11,4.80
2013,09,30,07,12,4.80
2013,09,30,07,13,4.80
2013,09,30,07,14,4.80
2013,09,30,07,15,8.10
2013,09,30,07,16,8.10
2013,09,30,07,17,9.60
2013,09,30,07,18,8.10
2013,09,30,07,19,11.30
2013,09,30,07,20,4.80
2013,09,30,07,21,11.30
2013,09,30,07,22,11.30
2013,09,30,07,23,8.10
2013,09,30,07,24,6.40
2013,09,30,07,25,4.80
2013,09,30,07,26,6.40
2013,09,30,07,27,4.80
2013,09,30,07,28,11.30
2013,09,30,07,29,8.10
2013,09,30,07,30,9.60
2013,09,30,07,31,9.60
2013,09,30,07,32,11.30
2013,09,30,07,33,16.10
2013,09,30,07,34,17.70
2013,09,30,07,35,11.30
2013,09,30,07,36,11.30
2013,09,30,07,37,16.10
2013,09,30,07,38,8.10
2013,09,30,07,39,17.70
2013,09,30,07,40,14.50
2013,09,30,07,41,9.60
2013,09,30,07,42,8.10
2013,09,30,07,43,6.40
2013,09,30,07,44,16.10
2013,09,30,07,45,17.70
2013,09,30,07,46,9.60
2013,09,30,07,47,11.30
2013,09,30,07,48,19.30
2013,09,30,07,49,19.30
2013,09,30,07,50,12.90
2013,09,30,07,51,11.30
2013,09,30,07,52,8.10
2013,09,30,07,53,9.60
2013,09,30,07,54,9.60
2013,09,30,07,55,14.50
2013,09,30,07,56,9.60
2013,09,30,07,57,8.10
2013,09,30,07,58,14.50
2013,09,30,07,59,11.30
2013,09,30,08,00,16.10
2013,09,30,08,01,19.30
2013,09,30,08,02,17.70
2013,09,30,08,03,30.60
2013,09,30,08,04,19.30
2013,09,30,08,05,19.30
2013,09,30,08,06,17.70
2013,09,30,08,07,19.30
2013,09,30,08,08,19.30
2013,09,30,08,09,20.90
2013,09,30,08,10,19.30
2013,09,30,08,11,17.70
2013,09,30,08,12,20.90
2013,09,30,08,13,16.10
2013,09,30,08,14,8.10
2013,09,30,08,15,16.10
2013,09,30,08,16,9.60
2013,09,30,08,17,11.30
2013,09,30,08,18,11.30
2013,09,30,08,19,4.80
2013,09,30,08,20,14.50
2013,09,30,08,21,9.60
2013,09,30,08,22,11.30
2013,09,30,08,23,14.50
2013,09,30,08,24,12.90
2013,09,30,08,25,9.60
2013,09,30,08,26,6.40
2013,09,30,08,27,6.40
2013,09,30,08,28,9.60
2013,09,30,08,29,6.40
2013,09,30,08,30,4.80
2013,09,30,08,31,3.20
2013,09,30,08,32,9.60
2013,09,30,08,33,8.10
2013,09,30,08,34,4.80
2013,09,30,08,35,4.80
2013,09,30,08,36,6.40
2013,09,30,08,37,1.60
2013,09,30,08,38,4.80
2013,09,30,08,39,6.40
2013,09,30,08,40,6.40
2013,09,30,08,41,6.40
2013,09,30,08,42,4.80
2013,09,30,08,45,1.60
2013,09,30,08,46,1.60
2013,09,30,08,50,3.20
2013,09,30,08,51,1.60
2013,09,30,08,52,3.20
2013,09,30,08,53,4.80
2013,09,30,08,54,6.40
2013,09,30,08,55,3.20
2013,09,30,08,56,4.80
2013,09,30,08,57,4.80
2013,09,30,08,58,4.80
2013,09,30,08,59,4.80
2013,09,30,09,00,4.80
2013,09,30,09,01,8.10
2013,09,30,09,02,4.80
2013,09,30,09,03,3.20
2013,09,30,09,04,6.40
2013,09,30,09,05,6.40
2013,09,30,09,06,6.40
2013,09,30,09,07,3.20
2013,09,30,09,08,11.30
2013,09,30,09,09,11.30
2013,09,30,09,10,8.10
2013,09,30,09,11,6.40
2013,09,30,09,12,8.10
2013,09,30,09,13,8.10
2013,09,30,09,14,8.10
2013,09,30,09,15,8.10
2013,09,30,09,16,8.10
2013,09,30,09,17,8.10
2013,09,30,09,18,9.60
2013,09,30,09,19,9.60
2013,09,30,09,20,9.60
2013,09,30,09,21,3.20
2013,09,30,09,22,6.40
2013,09,30,09,23,8.10
2013,09,30,09,24,8.10
2013,09,30,09,25,6.40
2013,09,30,09,26,4.80
2013,09,30,09,27,8.10
2013,09,30,09,28,4.80
2013,09,30,09,29,6.40
2013,09,30,09,31,6.40
2013,09,30,09,32,8.10
2013,09,30,09,33,8.10
2013,09,30,09,34,9.60
2013,09,30,09,35,14.50
2013,09,30,09,36,17.70
2013,09,30,09,37,17.70
2013,09,30,09,38,14.50
2013,09,30,09,39,14.50
2013,09,30,09,40,6.40
2013,09,30,09,41,8.10
2013,09,30,09,42,9.60
2013,09,30,09,43,11.30
2013,09,30,09,44,11.30
2013,09,30,09,45,9.60
2013,09,30,09,46,8.10
2013,09,30,09,47,9.60
2013,09,30,09,48,9.60
2013,09,30,09,49,9.60
2013,09,30,09,50,16.10
2013,09,30,09,51,11.30
2013,09,30,09,52,17.70
2013,09,30,09,53,9.60
2013,09,30,09,54,14.50
2013,09,30,09,55,11.30
2013,09,30,09,56,14.50
2013,09,30,09,57,16.10
2013,09,30,09,58,11.30
2013,09,30,09,59,11.30
2013,09,30,10,00,11.30
2013,09,30,10,01,8.10
2013,09,30,10,02,9.60
2013,09,30,10,03,8.10
2013,09,30,10,04,12.90
2013,09,30,10,05,9.60
2013,09,30,10,06,6.40
2013,09,30,10,07,14.50
2013,09,30,10,08,16.10
2013,09,30,10,09,14.50
2013,09,30,10,10,11.30
2013,09,30,10,11,6.40
2013,09,30,10,12,8.10
2013,09,30,10,13,8.10
2013,09,30,10,14,11.30
2013,09,30,10,15,11.30
2013,09,30,10,16,8.10
2013,09,30,10,17,6.40
2013,09,30,10,18,6.40
2013,09,30,10,19,14.50
2013,09,30,10,20,14.50
2013,09,30,10,21,14.50
2013,09,30,10,22,11.30
2013,09,30,10,23,9.60
2013,09,30,10,24,19.30
2013,09,30,10,25,17.70
2013,09,30,10,26,11.30
2013,09,30,10,27,8.10
2013,09,30,10,28,8.10
2013,09,30,10,29,11.30
2013,09,30,10,30,14.50
2013,09,30,10,31,14.50
2013,09,30,10,32,16.10
2013,09,30,10,33,16.10
2013,09,30,10,34,17.70
2013,09,30,10,35,16.10
2013,09,30,10,36,9.60
2013,09,30,10,37,11.30
2013,09,30,10,38,19.30
2013,09,30,10,39,24.20
2013,09,30,10,40,19.30
2013,09,30,10,41,16.10
2013,09,30,10,42,11.30
2013,09,30,10,43,16.10
2013,09,30,10,44,8.10
2013,09,30,10,45,6.40
2013,09,30,10,46,19.30
2013,09,30,10,47,17.70
2013,09,30,10,48,8.10
2013,09,30,10,49,11.30
2013,09,30,10,50,14.50
2013,09,30,10,51,14.50
2013,09,30,10,52,14.50
2013,09,30,10,53,19.30
2013,09,30,10,54,16.10
2013,09,30,10,55,11.30
2013,09,30,10,56,9.60
2013,09,30,10,57,11.30
2013,09,30,10,58,9.60
2013,09,30,10,59,8.10
2013,09,30,11,00,3.20
2013,09,30,11,01,12.90
2013,09,30,11,02,8.10
2013,09,30,11,03,11.30
2013,09,30,11,04,19.30
2013,09,30,11,05,19.30
2013,09,30,11,06,17.70
2013,09,30,11,07,11.30
2013,09,30,11,08,17.70
2013,09,30,11,09,17.70
2013,09,30,11,10,17.70
2013,09,30,11,11,11.30
2013,09,30,11,12,8.10
2013,09,30,11,13,9.60
2013,09,30,11,14,8.10
2013,09,30,11,15,8.10
2013,09,30,11,16,8.10
2013,09,30,11,17,6.40
2013,09,30,11,18,8.10
2013,09,30,11,19,14.50
2013,09,30,11,20,16.10
2013,09,30,11,21,14.50
2013,09,30,11,22,17.70
2013,09,30,11,23,17.70
2013,09,30,11,24,14.50
2013,09,30,11,25,9.60
2013,09,30,11,26,11.30
2013,09,30,11,27,9.60
2013,09,30,11,28,8.10
2013,09,30,11,29,3.20
2013,09,30,11,30,4.80
2013,09,30,11,31,1.60
2013,09,30,11,32,4.80
2013,09,30,11,33,6.40
2013,09,30,11,34,3.20
2013,09,30,11,35,4.80
2013,09,30,11,36,1.60
2013,09,30,11,37,1.60
2013,09,30,11,38,6.40
2013,09,30,11,39,9.60
2013,09,30,11,40,6.40
2013,09,30,11,41,9.60
2013,09,30,11,42,16.10
2013,09,30,11,43,14.50
2013,09,30,11,44,6.40
2013,09,30,11,45,3.20
2013,09,30,11,46,4.80
2013,09,30,11,47,9.60
2013,09,30,11,48,9.60
2013,09,30,11,49,6.40
2013,09,30,11,50,8.10
2013,09,30,11,51,9.60
2013,09,30,11,52,8.10
2013,09,30,11,53,8.10
2013,09,30,11,54,9.60
2013,09,30,11,55,6.40
2013,09,30,11,56,4.80
2013,09,30,11,57,8.10
2013,09,30,11,58,3.20
2013,09,30,11,59,1.60
2013,09,30,12,00,1.60
2013,09,30,12,01,3.20
2013,09,30,12,02,4.80
2013,09,30,12,03,9.60
2013,09,30,12,04,6.40
2013,09,30,12,05,4.80
2013,09,30,12,08,1.60
2013,09,30,12,09,1.60
2013,09,30,12,10,3.20
2013,09,30,12,11,8.10
2013,09,30,12,12,6.40
2013,09,30,12,13,6.40
2013,09,30,12,14,1.60
2013,09,30,12,15,4.80
2013,09,30,12,16,9.60
2013,09,30,12,17,9.60
2013,09,30,12,18,14.50
2013,09,30,12,19,20.90
2013,09,30,12,20,14.50
2013,09,30,12,21,16.10
2013,09,30,12,22,19.30
2013,09,30,12,23,30.60
2013,09,30,12,24,22.50
2013,09,30,12,25,24.20
2013,09,30,12,26,11.30
2013,09,30,12,27,9.60
2013,09,30,12,28,9.60
2013,09,30,12,29,11.30
2013,09,30,12,30,6.40
2013,09,30,12,31,3.20
2013,09,30,12,32,6.40
2013,09,30,12,33,11.30
2013,09,30,12,34,16.10
2013,09,30,12,35,8.10
2013,09,30,12,36,11.30
2013,09,30,12,37,16.10
2013,09,30,12,38,16.10
2013,09,30,12,39,11.30
2013,09,30,12,40,4.80
2013,09,30,12,41,8.10
2013,09,30,12,42,6.40
2013,09,30,12,43,8.10
2013,09,30,12,44,6.40
2013,09,30,12,45,11.30
2013,09,30,12,46,11.30
2013,09,30,12,47,11.30
2013,09,30,12,48,12.90
2013,09,30,12,49,9.60
2013,09,30,12,50,9.60
2013,09,30,12,51,9.60
2013,09,30,12,52,14.50
2013,09,30,12,53,8.10
2013,09,30,12,54,9.60
2013,09,30,12,55,14.50
2013,09,30,12,56,16.10
2013,09,30,12,57,8.10
2013,09,30,12,58,9.60
2013,09,30,12,59,8.10
2013,09,30,13,00,6.40
2013,09,30,13,01,6.40
2013,09,30,13,02,6.40
2013,09,30,13,03,11.30
2013,09,30,13,04,14.50
2013,09,30,13,05,11.30
2013,09,30,13,06,11.30
2013,09,30,13,07,9.60
2013,09,30,13,08,17.70
2013,09,30,13,09,9.60
2013,09,30,13,10,8.10
2013,09,30,13,11,4.80
2013,09,30,13,12,9.60
2013,09,30,13,13,6.40
2013,09,30,13,14,4.80
2013,09,30,13,15,4.80
2013,09,30,13,16,4.80
2013,09,30,13,17,6.40
2013,09,30,13,18,6.40
2013,09,30,13,19,4.80
2013,09,30,13,20,8.10
2013,09,30,13,21,11.30
2013,09,30,13,22,1.60
2013,09,30,13,23,4.80
2013,09,30,13,24,3.20
2013,09,30,13,25,4.80
2013,09,30,13,26,3.20
2013,09,30,13,27,3.20
2013,09,30,13,28,3.20
2013,09,30,13,29,4.80
2013,09,30,13,30,6.40
2013,09,30,13,31,11.30
2013,09,30,13,32,6.40
2013,09,30,13,33,9.60
2013,09,30,13,34,16.10
2013,09,30,13,35,9.60
2013,09,30,13,36,17.70
2013,09,30,13,37,12.90
2013,09,30,13,38,11.30
2013,09,30,13,39,22.50
2013,09,30,13,40,19.30
2013,09,30,13,41,11.30
2013,09,30,13,42,20.90
2013,09,30,13,43,11.30
2013,09,30,13,44,11.30
2013,09,30,13,45,20.90
2013,09,30,13,46,20.90
2013,09,30,13,47,27.40
2013,09,30,13,48,17.70
2013,09,30,13,49,16.10
2013,09,30,13,50,17.70
2013,09,30,13,51,16.10
2013,09,30,13,52,14.50
2013,09,30,13,53,14.50
2013,09,30,13,54,17.70
2013,09,30,13,55,17.70
2013,09,30,13,56,17.70
2013,09,30,13,57,12.90
2013,09,30,13,58,22.50
2013,09,30,13,59,19.30
2013,09,30,14,00,16.10
2013,09,30,14,01,16.10
2013,09,30,14,02,16.10
2013,09,30,14,03,20.90
2013,09,30,14,04,11.30
2013,09,30,14,05,17.70
2013,09,30,14,06,17.70
2013,09,30,14,07,17.70
2013,09,30,14,08,8.10
2013,09,30,14,09,16.10
2013,09,30,14,10,9.60
2013,09,30,14,11,6.40
2013,09,30,14,12,16.10
2013,09,30,14,13,17.70
2013,09,30,14,14,16.10
2013,09,30,14,15,11.30
2013,09,30,14,16,9.60
2013,09,30,14,17,11.30
2013,09,30,14,18,14.50
2013,09,30,14,19,8.10
2013,09,30,14,20,11.30
2013,09,30,14,21,12.90
2013,09,30,14,22,17.70
2013,09,30,14,23,9.60
2013,09,30,14,24,11.30
2013,09,30,14,25,11.30
2013,09,30,14,26,4.80
2013,09,30,14,27,17.70
2013,09,30,14,28,14.50
2013,09,30,14,29,16.10
2013,09,30,14,30,11.30
2013,09,30,14,31,16.10
2013,09,30,14,32,9.60
2013,09,30,14,33,11.30
2013,09,30,14,34,17.70
2013,09,30,14,35,12.90
2013,09,30,14,36,11.30
2013,09,30,14,37,8.10
2013,09,30,14,38,20.90
2013,09,30,14,39,16.10
2013,09,30,14,40,25.70
2013,09,30,14,41,14.50
2013,09,30,14,42,27.40
2013,09,30,14,43,20.90
2013,09,30,14,44,19.30
2013,09,30,14,45,20.90
2013,09,30,14,46,20.90
2013,09,30,14,47,25.70
2013,09,30,14,48,25.70
2013,09,30,14,49,25.70
2013,09,30,14,50,22.50
2013,09,30,14,51,19.30
2013,09,30,14,52,20.90
2013,09,30,14,53,22.50
2013,09,30,14,54,20.90
2013,09,30,14,55,17.70
2013,09,30,14,56,17.70
2013,09,30,14,57,17.70
2013,09,30,14,58,19.30
2013,09,30,14,59,20.90
2013,09,30,15,00,11.30
2013,09,30,15,01,14.50
2013,09,30,15,02,20.90
2013,09,30,15,03,14.50
2013,09,30,15,04,25.70
2013,09,30,15,05,24.20
2013,09,30,15,06,19.30
2013,09,30,15,07,14.50
2013,09,30,15,08,20.90
2013,09,30,15,09,16.10
2013,09,30,15,10,11.30
2013,09,30,15,11,9.60
2013,09,30,15,12,9.60
2013,09,30,15,13,19.30
2013,09,30,15,14,12.90
2013,09,30,15,15,11.30
2013,09,30,15,16,9.60
2013,09,30,15,17,9.60
2013,09,30,15,18,12.90
2013,09,30,15,19,11.30
2013,09,30,15,20,4.80
2013,09,30,15,21,6.40
2013,09,30,15,22,8.10
2013,09,30,15,23,11.30
2013,09,30,15,24,6.40
2013,09,30,15,25,17.70
2013,09,30,15,26,16.10
2013,09,30,15,27,19.30
2013,09,30,15,28,11.30
2013,09,30,15,29,11.30
2013,09,30,15,30,9.60
2013,09,30,15,31,6.40
2013,09,30,15,32,9.60
2013,09,30,15,33,14.50
2013,09,30,15,34,16.10
2013,09,30,15,35,16.10
2013,09,30,15,36,9.60
2013,09,30,15,37,17.70
2013,09,30,15,38,16.10
2013,09,30,15,39,11.30
2013,09,30,15,40,14.50
2013,09,30,15,41,9.60
2013,09,30,15,42,9.60
2013,09,30,15,43,6.40
2013,09,30,15,44,9.60
2013,09,30,15,45,9.60
2013,09,30,15,46,16.10
2013,09,30,15,47,11.30
2013,09,30,15,48,11.30
2013,09,30,15,49,11.30
2013,09,30,15,50,11.30
2013,09,30,15,51,9.60
2013,09,30,15,52,9.60
2013,09,30,15,53,8.10
2013,09,30,15,54,8.10
2013,09,30,15,55,6.40
2013,09,30,15,56,14.50
2013,09,30,15,57,16.10
2013,09,30,15,58,8.10
2013,09,30,15,59,11.30
2013,09,30,16,00,9.60
2013,09,30,16,01,14.50
2013,09,30,16,02,9.60
2013,09,30,16,03,14.50
2013,09,30,16,04,9.60
2013,09,30,16,05,8.10
2013,09,30,16,06,6.40
2013,09,30,16,07,6.40
2013,09,30,16,08,11.30
2013,09,30,16,09,12.90
2013,09,30,16,10,14.50
2013,09,30,16,11,14.50
2013,09,30,16,12,9.60
2013,09,30,16,13,8.10
2013,09,30,16,14,14.50
2013,09,30,16,15,9.60
2013,09,30,16,16,16.10
2013,09,30,16,17,14.50
2013,09,30,16,18,8.10
2013,09,30,16,19,11.30
2013,09,30,16,20,11.30
2013,09,30,16,21,4.80
2013,09,30,16,22,6.40
2013,09,30,16,23,9.60
2013,09,30,16,24,6.40
2013,09,30,16,25,17.70
2013,09,30,16,26,17.70
2013,09,30,16,27,11.30
2013,09,30,16,28,14.50
2013,09,30,16,29,9.60
2013,09,30,16,30,8.10
2013,09,30,16,31,6.40
2013,09,30,16,32,11.30
2013,09,30,16,33,8.10
2013,09,30,16,34,6.40
2013,09,30,16,35,9.60
2013,09,30,16,36,9.60
2013,09,30,16,37,11.30
2013,09,30,16,38,9.60
2013,09,30,16,39,9.60
2013,09,30,16,40,17.70
2013,09,30,16,41,14.50
2013,09,30,16,42,17.70
2013,09,30,16,43,20.90
2013,09,30,16,44,17.70
2013,09,30,16,45,19.30
2013,09,30,16,46,22.50
2013,09,30,16,47,20.90
2013,09,30,16,48,20.90
2013,09,30,16,49,20.90
2013,09,30,16,50,16.10
2013,09,30,16,51,22.50
2013,09,30,16,52,14.50
2013,09,30,16,53,17.70
2013,09,30,16,54,16.10
2013,09,30,16,55,11.30
2013,09,30,16,56,8.10
2013,09,30,16,57,9.60
2013,09,30,16,58,20.90
2013,09,30,16,59,11.30
2013,09,30,17,00,14.50
2013,09,30,17,01,17.70
2013,09,30,17,02,14.50
2013,09,30,17,03,11.30
2013,09,30,17,04,11.30
2013,09,30,17,05,17.70
2013,09,30,17,06,14.50
2013,09,30,17,07,14.50
2013,09,30,17,08,22.50
2013,09,30,17,09,19.30
2013,09,30,17,10,20.90
2013,09,30,17,11,29.00
2013,09,30,17,12,29.00
2013,09,30,17,13,27.40
2013,09,30,17,14,22.50
2013,09,30,17,15,24.20
2013,09,30,17,16,35.40
2013,09,30,17,17,35.40
2013,09,30,17,18,17.70
2013,09,30,17,19,25.70
2013,09,30,17,20,24.20
2013,09,30,17,21,20.90
2013,09,30,17,22,22.50
2013,09,30,17,23,20.90
2013,09,30,17,24,14.50
2013,09,30,17,25,25.70
2013,09,30,17,26,25.70
2013,09,30,17,27,11.30
2013,09,30,17,28,9.60
2013,09,30,17,29,22.50
2013,09,30,17,30,19.30
2013,09,30,17,31,16.10
2013,09,30,17,32,12.90
2013,09,30,17,33,14.50
2013,09,30,17,34,19.30
2013,09,30,17,35,19.30
2013,09,30,17,36,27.40
2013,09,30,17,37,20.90
2013,09,30,17,38,16.10
2013,09,30,17,39,17.70
2013,09,30,17,40,16.10
2013,09,30,17,41,11.30
2013,09,30,17,42,9.60
2013,09,30,17,43,11.30
2013,09,30,17,44,17.70
2013,09,30,17,45,14.50
2013,09,30,17,46,11.30
2013,09,30,17,47,9.60
2013,09,30,17,48,8.10
2013,09,30,17,49,8.10
2013,09,30,17,50,6.40
2013,09,30,17,51,9.60
2013,09,30,17,52,9.60
2013,09,30,17,53,3.20
2013,09,30,17,54,8.10
2013,09,30,17,55,11.30
2013,09,30,17,56,8.10
2013,09,30,17,57,9.60
2013,09,30,17,58,9.60
2013,09,30,17,59,6.40
2013,09,30,18,00,17.70